Date String (YYYY-MM-DD hh:mm:ss) UTC,Instrument flags,Ambient pressure (hPa),Sample flow (lpm),Bypass flow (lpm),Sample temperature (°C),Ambient temperature (°C),ASC tube jacket temperature (°C),LED temperature (°C),Box temperature (°C),Sample RH (%),Span deviation,Mass concentration (μg/m³),Mass concentration (μg/m³),Mass concentration (μg/m³)
DateTimeUTC,F1_M11,P_M11,Q1_M11,Q2_M11,T1_M11,T2_M11,T3_M11,T4_M11,T5_M11,U1_M11,ZSPAN_M11,X0_M11,X2_M11,X1_M11
2022-01-31 04:00:00,,0823.7,5.00,0.00,26.3,25.5,00.0,35.3,28.1,05.8,0000.0,0010.46,0006.85,0006.40
2022-01-31 04:01:00,,0823.8,5.01,0.00,26.3,25.5,00.0,35.3,28.1,05.7,0000.0,0010.40,0006.79,0006.35
2022-01-31 04:02:00,,0823.8,5.00,0.00,26.3,25.5,00.0,35.3,28.1,05.6,0000.0,0010.30,0006.70,0006.25
2022-01-31 04:03:00,,0823.7,5.00,0.00,26.3,25.5,00.0,35.3,28.0,05.7,0000.0,0010.12,0006.58,0006.16
2022-01-31 04:04:00,,0823.8,5.00,0.00,26.3,25.5,00.0,35.3,28.0,05.7,0000.0,0009.83,0006.45,0006.10
2022-01-31 04:05:00,,0823.8,5.00,0.00,26.3,25.5,00.0,35.3,28.0,05.7,0000.0,0009.74,0006.38,0006.05
2022-01-31 04:06:00,,0823.7,5.00,0.00,26.2,25.5,00.0,35.3,28.0,05.7,0000.0,0009.65,0006.35,0006.04
2022-01-31 04:07:00,,0823.7,4.99,0.00,26.2,25.5,00.0,35.3,28.0,05.7,0000.0,0009.60,0006.35,0006.05
2022-01-31 04:08:00,,0823.7,5.01,0.00,26.2,25.5,00.0,35.3,28.0,05.7,0003.9,0009.58,0006.31,0006.03
2022-01-31 04:09:00,,0823.8,4.99,0.00,26.2,25.5,00.0,35.3,28.0,05.6,0005.4,0009.39,0006.25,0005.98
2022-01-31 04:10:00,,0823.8,5.01,0.00,26.2,25.5,00.0,35.2,28.0,05.7,0005.8,0009.34,0006.24,0005.99
2022-01-31 04:11:00,,0823.7,5.01,0.00,26.2,25.5,00.0,35.2,28.0,05.7,0002.8,0009.29,0006.25,0006.00
2022-01-31 04:12:00,,0823.7,4.99,0.00,26.2,25.5,00.0,35.2,28.0,05.7,0000.7,0009.31,0006.27,0006.00
2022-01-31 04:13:00,,0823.7,5.00,0.00,26.2,25.5,00.0,35.2,28.1,05.7,0005.1,0009.72,0006.33,0006.06
2022-01-31 04:14:00,,0823.6,5.01,0.00,26.2,25.5,00.0,35.2,28.0,05.7,0005.9,0009.88,0006.42,0006.14
2022-01-31 04:15:00,,0823.7,4.99,0.00,26.2,25.5,00.0,35.2,28.1,05.7,0000.4,0009.96,0006.48,0006.18
2022-01-31 04:16:00,,0823.7,5.01,0.00,26.2,25.5,00.0,35.2,28.0,05.7,0005.1,0009.97,0006.52,0006.22
2022-01-31 04:17:00,,0823.7,5.01,0.00,26.3,25.5,00.0,35.2,28.0,05.7,0005.9,0010.26,0006.52,0006.20
2022-01-31 04:18:00,,0823.7,5.00,0.00,26.2,25.5,00.0,35.2,28.0,05.7,0005.9,0010.53,0006.54,0006.20
2022-01-31 04:19:00,,0823.7,5.01,0.00,26.2,25.5,00.0,35.2,28.1,05.7,0005.9,0010.56,0006.57,0006.22
2022-01-31 04:20:00,,0823.7,4.98,0.00,26.3,25.5,00.0,35.2,28.1,05.7,0005.7,0010.69,0006.65,0006.27
2022-01-31 04:21:00,,0823.7,5.01,0.00,26.3,25.4,00.0,35.2,28.1,05.7,0005.8,0010.77,0006.69,0006.27
2022-01-31 04:22:00,,0823.7,4.98,0.00,26.2,25.4,00.0,35.2,28.1,05.7,0005.1,0010.81,0006.71,0006.28
2022-01-31 04:23:00,,0823.7,5.00,0.00,26.3,25.4,00.0,35.2,28.1,05.7,0004.8,0010.90,0006.73,0006.31
2022-01-31 04:24:00,,0823.7,5.01,0.00,26.3,25.4,00.0,35.2,28.1,05.8,0005.2,0010.62,0006.76,0006.35
2022-01-31 04:25:00,,0823.7,5.00,0.00,26.3,25.4,00.0,35.2,28.1,05.8,0005.7,0010.62,0006.78,0006.38
2022-01-31 04:26:00,,0823.7,5.02,0.00,26.3,25.4,00.0,35.2,28.0,05.8,0005.5,0010.78,0006.83,0006.41
2022-01-31 04:27:00,,0823.7,4.98,0.00,26.3,25.4,00.0,35.2,28.1,05.8,0005.1,0011.58,0006.84,0006.43
2022-01-31 04:28:00,,0823.7,5.00,0.00,26.3,25.4,00.0,35.2,28.1,05.8,0005.1,0011.30,0006.84,0006.46
2022-01-31 04:29:00,,0823.7,5.01,0.00,26.2,25.4,00.0,35.2,28.0,05.8,0005.1,0011.11,0006.85,0006.49
2022-01-31 04:30:00,,0823.7,5.00,0.00,26.2,25.4,00.0,35.2,28.1,05.7,0005.0,0011.20,0006.87,0006.51
2022-01-31 04:31:00,,0823.7,5.01,0.00,26.2,25.4,00.0,35.2,28.1,05.7,0004.8,0011.21,0006.84,0006.51
2022-01-31 04:32:00,,0823.7,5.00,0.00,26.2,25.4,00.0,35.2,28.0,05.7,0004.8,0011.67,0006.83,0006.53
2022-01-31 04:33:00,,0823.8,5.01,0.00,26.2,25.4,00.0,35.2,28.0,05.7,0004.2,0011.82,0006.82,0006.55
2022-01-31 04:34:00,,0823.8,5.00,0.00,26.2,25.4,00.0,35.2,28.0,05.8,0004.8,0011.79,0006.83,0006.56
2022-01-31 04:35:00,,0823.8,5.01,0.00,26.2,25.4,00.0,35.2,28.0,05.8,0004.4,0011.83,0006.85,0006.57
2022-01-31 04:36:00,,0823.8,5.00,0.00,26.2,25.4,00.0,35.2,28.0,05.8,0004.3,0011.89,0006.86,0006.57
2022-01-31 04:37:00,,0823.8,5.00,0.00,26.2,25.4,00.0,35.2,28.0,05.8,0002.9,0012.10,0006.85,0006.57
2022-01-31 04:38:00,,0823.8,4.99,0.00,26.2,25.4,00.0,35.2,28.0,05.8,0008.3,0011.94,0006.86,0006.57
2022-01-31 04:39:00,,0823.8,5.01,0.00,26.2,25.4,00.0,35.2,28.0,05.8,0008.3,0011.76,0006.87,0006.58
2022-01-31 04:40:00,,0823.8,5.00,0.00,26.2,25.4,00.0,35.1,28.0,05.8,0008.7,0011.82,0006.90,0006.58
2022-01-31 04:41:00,,0823.8,5.00,0.00,26.2,25.3,00.0,35.1,28.0,05.8,0008.1,0011.79,0006.92,0006.59
2022-01-31 04:42:00,,0823.8,4.99,0.00,26.2,25.3,00.0,35.1,28.0,05.6,0007.9,0011.71,0006.94,0006.61
2022-01-31 04:43:00,,0823.8,5.01,0.00,26.2,25.3,00.0,35.1,28.0,05.8,0009.2,0011.35,0006.95,0006.62
2022-01-31 04:44:00,,0823.8,4.99,0.00,26.2,25.3,00.0,35.1,28.0,05.6,0008.7,0011.11,0006.95,0006.63
2022-01-31 04:45:00,,0823.8,5.01,0.00,26.2,25.3,00.0,35.1,28.0,05.5,0009.6,0011.19,0006.94,0006.61
2022-01-31 04:46:00,,0823.8,4.99,0.00,26.2,25.3,00.0,35.1,28.0,05.3,0009.8,0011.14,0006.91,0006.59
2022-01-31 04:47:00,,0823.8,5.02,0.00,26.2,25.3,00.0,35.1,27.9,05.3,0006.5,0011.33,0006.90,0006.56
2022-01-31 04:48:00,,0823.8,5.01,0.00,26.2,25.3,00.0,35.1,28.0,05.2,0006.4,0011.08,0006.86,0006.52
2022-01-31 04:49:00,,0823.8,4.99,0.00,26.2,25.3,00.0,35.1,28.0,05.2,0000.0,0010.64,0006.80,0006.48
2022-01-31 04:50:00,,0823.8,5.00,0.00,26.1,25.3,00.0,35.1,27.9,05.2,0009.5,0010.75,0006.75,0006.45
2022-01-31 04:51:00,,0823.8,5.01,0.00,26.1,25.3,00.0,35.1,27.9,05.1,0011.5,0010.66,0006.70,0006.41
2022-01-31 04:52:00,,0823.8,5.00,0.00,26.1,25.3,00.0,35.1,27.9,05.1,0012.1,0010.88,0006.64,0006.37
2022-01-31 04:53:00,,0823.7,4.99,0.00,26.1,25.3,00.0,35.1,27.9,05.3,0012.5,0011.47,0006.61,0006.35
2022-01-31 04:54:00,,0823.7,5.01,0.00,26.1,25.3,00.0,35.1,27.9,05.4,0007.9,0011.43,0006.60,0006.33
2022-01-31 04:55:00,,0823.8,5.00,0.00,26.1,25.2,00.0,35.1,27.9,05.3,0013.2,0011.39,0006.58,0006.30
2022-01-31 04:56:00,,0823.7,4.99,0.00,26.1,25.2,00.0,35.0,27.9,05.2,0013.6,0011.25,0006.57,0006.30
2022-01-31 04:57:00,,0823.7,5.02,0.00,26.1,25.2,00.0,35.0,27.9,05.1,0013.0,0011.16,0006.54,0006.29
2022-01-31 04:58:00,,0823.7,4.99,0.00,26.1,25.2,00.0,35.0,27.9,05.1,0012.4,0011.06,0006.51,0006.28
2022-01-31 04:59:00,,0823.7,5.00,0.00,26.1,25.2,00.0,35.0,27.9,05.2,0011.9,0010.99,0006.49,0006.29
